Retour au catalogue

STARLINK-5199

ActifCommunicationsVLEO
NORAD 54201·PAYLOAD·🇺🇸 United States

Lancé Oct 28, 2022 depuis Vandenberg Space Force Base

Loading…

Prochains Passages (prochaines 24 heures)

TLE

FraisSource: CelesTrak SupGP

Époque: Sep 14, 2026, 21:31 UTC

1 54201C 22141AW  26257.89701389  .00010070  00000+0  29747-3 0  2575
2 54201  53.1582 213.7797 0001379  97.0631  92.4652 15.34389199    11

Suivez STARLINK-5199 en temps réel avec AllMySat

Download on the App Store